Flag for Canada Weather past 2 weeks in Waterloo, Ontario, Canada

Now
18 °F

Sunny.


Feels Like: 2 °F
Forecast: -7 / 19 °F
Wind: 18 mph from Southwest

Location: Waterloo Well

Current Time: Mar 6, 2015 at 1:20:16 PM

Latest Report: Mar 6, 2015 at 1:00 PM


Visibility: 9 mi

Pressure: 30.42 "Hg

Humidity: 58%

Dew point: 5 °F

Location of WaterlooLocation

Historic Weather in Waterloo — Graph

°F

Waterloo temperature yesterday

Maximum temperature yesterday: 10 °F (at 12:00 AM)
Minimum temperature yesterday: -2 °F (at 11:00 PM)
Average temperature yesterday: 4 °F

Past Weeks' High & Low Weather Summary

 TemperatureHumidityPressure
High32 °F (Mar 3, 8:00 PM)100% (Mar 1, 11:00 PM)30.78 "Hg (Mar 1, 11:00 PM)
Low-15 °F (Feb 20, 7:00 AM)42% (Feb 20, 4:00 PM)29.58 "Hg (Mar 3, 8:00 PM)
Average7 °F76%30.23 "Hg
* Reported Feb 19 12:00 Noon — Mar 6 12:00 Noon, Waterloo, Weather by CustomWeather, © 2015

Note: Actual official high and low records may vary slightly from our data, if they occured in-between our weather recording intervals... More about our weather records

Advertising

Waterloo weather history for previous 24 hours

 ConditionsComfort  
Time TempWeatherWind HumidityBarometerVisibility
12:00 PM
Fri, Mar 6
14 °FPassing clouds.20 mph67%30.47 "Hg9 mi
11:00 AM12 °FSunny.17 mph67%30.48 "Hg9 mi
10:00 AM9 °FSunny.16 mph72%30.48 "Hg9 mi
9:00 AM7 °FSunny.14 mph78%30.50 "Hg9 mi
8:00 AM0 °FSunny.7 mph84%30.51 "Hg9 mi
7:00 AM-2 °FSunny.3 mph84%30.51 "Hg9 mi
6:00 AM0 °FClear.5 mph78%30.51 "Hg9 mi
5:00 AM0 °FClear.5 mph78%30.50 "Hg9 mi
4:00 AM0 °FClear.3 mph78%30.50 "Hg9 mi
3:00 AM0 °FClear.3 mph78%30.51 "Hg9 mi
2:00 AM-9 °FClear.2 mph77%30.53 "Hg9 mi
1:00 AM-8 °FClear.3 mph84%30.51 "Hg9 mi
12:00 AM-9 °FClear.3 mph84%30.52 "Hg9 mi
11:00 PM
Thu, Mar 5
-2 °FClear.3 mph84%30.53 "Hg9 mi
10:00 PM0 °FClear.3 mph78%30.52 "Hg9 mi
9:00 PM1 °FClear.7 mph71%30.50 "Hg9 mi
8:00 PM3 °FClear.6 mph72%30.50 "Hg9 mi
7:00 PM5 °FClear.8 mph66%30.47 "Hg9 mi
6:00 PM7 °FSunny.14 mph61%30.43 "Hg9 mi
5:00 PM9 °FSunny.13 mph56%30.40 "Hg9 mi
4:00 PM10 °FSunny.13 mph52%30.38 "Hg9 mi
3:00 PM10 °FPartly sunny.12 mph56%30.37 "Hg9 mi
2:00 PM9 °FSunny.10 mph61%30.37 "Hg9 mi
1:00 PM9 °FSunny.13 mph61%30.38 "Hg9 mi
Weather by CustomWeather, © 2015

See weather overviewHow to use our weather pages